Grand Rapids, MI

4:41 PM EDT on May 25, 2017 (GMT -0400)
Gerald R. Ford International

Weather History for KGRR - March, 2013

Change the Weather History Date:

Wednesday, March 20, 2013

  Actual Average Record
Temperature  
Mean Temperature 19 °F 37 °F  
Max Temperature 26 °F 46 °F 83 °F (2012)
Min Temperature 11 °F 28 °F 3 °F (1965)
Degree Days  
Heating Degree Days 46 28  
Month to date heating degree days 698 629  
Since 1 July heating degree days 5183 5406  
Cooling Degree Days 0 0  
Month to date cooling degree days 0 0  
Year to date cooling degree days 0 0  
Moisture  
Dew Point 13 °F    
Average Humidity 74    
Maximum Humidity 92    
Minimum Humidity 55    
Precipitation  
Precipitation 0.02 in 0.08 in 1.22 in (2011)
Month to date precipitation 0.85 1.45  
Year to date precipitation 7.91 5.33  
Snow  
Snow 0.90 in 0.20 in 8.40 in (1940)
Month to date snowfall 6.9 6.5  
Since 1 July snowfall 64.5 71.3  
Snow Depth 3.00 in    
Sea Level Pressure  
Sea Level Pressure 29.96 in    
Wind  
Wind Speed 12 mph (West)    
Max Wind Speed 23 mph    
Max Gust Speed 28 mph    
Visibility 6 miles    
Events Snow    
T = Trace of Precipitation, MM = Missing Value Source: NWS Daily Summary

Daily Weather History Graph

Daily Weather History Graph

Search for Another Location

Airport or City:

Trip Planner

Search our weather history database for the weather conditions in past years. The results will help you decide how hot, cold, wet, or windy it might be!

Date:

Astronomy

Mar. 20, 2013 Rise Set
Actual Time 7:44 AM EDT 7:54 PM EDT
Civil Twilight 7:16 AM EDT 8:22 PM EDT
Nautical Twilight 6:43 AM EDT 8:56 PM EDT
Astronomical Twilight 6:09 AM EDT 9:30 PM EDT
Moon 1:21 PM EDT (3/20) 3:31 AM EDT (3/20)
Length of Visible Light 13h 06m
Length of Day
12h 09m
First Quarter, 59% of the Moon is Illuminated
Mar 20
First Quarter
Mar 27
Full
Apr 3
Last Quarter
Apr 10
New
Apr 18
First Quarter

Hourly Weather History & Observations

Time (EDT) Temp. Windchill Dew Point Humidity Pressure Visibility Wind Dir Wind Speed Gust Speed Precip Events Conditions
12:53 AM 26.1 °F 14.0 °F 12.0 °F 55% 29.97 in 10.0 mi West 15.0 mph 21.9 mph N/A   Clear
1:53 AM 26.1 °F 14.0 °F 12.0 °F 55% 29.96 in 10.0 mi West 15.0 mph - N/A   Clear
2:53 AM 26.1 °F 14.5 °F 12.0 °F 55% 29.96 in 10.0 mi West 13.8 mph - N/A   Overcast
3:53 AM 25.0 °F 13.1 °F 12.9 °F 60% 29.96 in 10.0 mi WNW 13.8 mph - N/A   Overcast
4:53 AM 25.0 °F 13.6 °F 12.9 °F 60% 29.95 in 10.0 mi WNW 12.7 mph - N/A   Overcast
5:53 AM 24.1 °F 12.5 °F 12.9 °F 62% 29.94 in 10.0 mi West 12.7 mph - N/A   Overcast
6:53 AM 23.0 °F 13.9 °F 12.9 °F 65% 29.95 in 10.0 mi WNW 8.1 mph - N/A   Overcast
7:53 AM 21.9 °F 10.4 °F 14.0 °F 72% 29.96 in 10.0 mi West 11.5 mph - 0.00 in   Mostly Cloudy
8:53 AM 21.9 °F 9.8 °F 12.0 °F 66% 29.96 in 9.0 mi WNW 12.7 mph - 0.00 in   Scattered Clouds
9:53 AM 21.9 °F 8.7 °F 12.9 °F 68% 29.97 in 9.0 mi West 15.0 mph 21.9 mph 0.00 in Snow Light Snow
10:30 AM 23.0 °F 9.2 °F 12.2 °F 63% 29.93 in 9.0 mi West 17.3 mph - 0.00 in Snow Light Snow
10:53 AM 23.0 °F 10.1 °F 12.9 °F 65% 29.97 in 9.0 mi West 15.0 mph 21.9 mph 0.00 in Snow Light Snow
11:53 AM 21.9 °F 6.5 °F 12.9 °F 68% 29.96 in 5.0 mi West 20.7 mph - 0.00 in Snow Light Snow
12:53 PM 21.9 °F 9.8 °F 14.0 °F 72% 29.98 in 3.0 mi West 12.7 mph 23.0 mph 0.00 in Snow Light Snow
1:53 PM 23.0 °F 9.2 °F 12.0 °F 63% 29.97 in 9.0 mi West 17.3 mph - 0.00 in Snow Light Snow
2:46 PM 21.2 °F 6.4 °F 15.8 °F 80% 29.93 in 1.8 mi West 18.4 mph - 0.00 in Snow Light Snow
2:53 PM 21.0 °F 7.6 °F 15.1 °F 78% 29.97 in 2.0 mi West 15.0 mph - 0.00 in Snow Light Snow
3:18 PM 21.2 °F 6.4 °F 14.0 °F 74% 29.93 in 5.0 mi West 18.4 mph - 0.00 in Snow Light Snow
3:49 PM 21.2 °F 6.4 °F 14.0 °F 74% 29.92 in 2.0 mi WSW 18.4 mph - 0.00 in Snow Light Snow
3:53 PM 21.0 °F 7.6 °F 12.9 °F 71% 29.96 in 1.8 mi West 15.0 mph - 0.00 in Snow Light Snow
3:57 PM 21.2 °F 8.3 °F 12.2 °F 68% 29.93 in 2.0 mi West 13.8 mph - 0.00 in Snow Light Snow
4:10 PM 21.2 °F 6.8 °F 12.2 °F 68% 29.93 in 5.0 mi West 17.3 mph - 0.00 in Snow Light Snow
4:20 PM 21.2 °F 7.3 °F 14.0 °F 74% 29.93 in 1.8 mi WSW 16.1 mph - 0.00 in Snow Light Snow
4:23 PM 19.4 °F 5.5 °F 15.8 °F 86% 29.93 in 0.8 mi West 15.0 mph - 0.00 in Snow Light Snow
4:36 PM 19.4 °F 5.0 °F 14.0 °F 80% 29.93 in 2.5 mi West 16.1 mph - 0.00 in Snow Light Snow
4:52 PM 21.0 °F 6.6 °F 15.1 °F 78% 29.97 in 2.5 mi West 17.3 mph - 0.00 in Snow Light Snow
5:15 PM 19.4 °F 6.6 °F 14.0 °F 80% 29.93 in 1.0 mi WNW 12.7 mph - 0.00 in Snow Light Snow
5:36 PM 19.4 °F 5.5 °F 14.0 °F 80% 29.94 in 3.0 mi West 15.0 mph - 0.00 in Snow Light Snow
5:41 PM 21.2 °F 8.3 °F 15.8 °F 80% 29.94 in 1.0 mi West 13.8 mph - 0.00 in Snow Light Snow
5:53 PM 21.0 °F 7.6 °F 15.1 °F 78% 29.98 in 1.0 mi WNW 15.0 mph - 0.00 in Snow Light Snow
6:01 PM 19.4 °F 6.0 °F 14.0 °F 80% 29.94 in 2.5 mi West 13.8 mph - 0.00 in Snow Light Snow
6:08 PM 19.4 °F 6.0 °F 12.2 °F 74% 29.94 in 7.0 mi WNW 13.8 mph - 0.00 in Snow Light Snow
6:44 PM 19.4 °F 6.6 °F 10.4 °F 68% 29.95 in 9.0 mi West 12.7 mph - 0.00 in Snow Light Snow
6:53 PM 19.9 °F 6.2 °F 10.9 °F 68% 29.99 in 9.0 mi West 15.0 mph - 0.00 in Snow Light Snow
7:12 PM 19.4 °F 8.6 °F 12.2 °F 74% 29.96 in 4.0 mi West 9.2 mph - 0.00 in Snow Light Snow
7:30 PM 19.4 °F 5.5 °F 12.2 °F 74% 29.96 in 0.5 mi West 15.0 mph - 0.00 in Snow Light Snow
7:36 PM 19.4 °F 8.6 °F 14.0 °F 80% 29.96 in 0.2 mi WNW 9.2 mph - 0.00 in Snow Heavy Snow
7:42 PM 19.4 °F 9.5 °F 15.8 °F 86% 29.96 in 2.0 mi West 8.1 mph - 0.01 in Snow Light Snow
7:46 PM 19.4 °F 9.5 °F 15.8 °F 86% 29.96 in 3.0 mi West 8.1 mph - 0.01 in Snow Light Snow
7:53 PM 18.0 °F 6.9 °F 14.0 °F 84% 30.00 in 8.0 mi West 9.2 mph - 0.01 in Snow Light Snow
8:01 PM 17.6 °F 5.7 °F 12.2 °F 79% 29.96 in 9.0 mi West 10.4 mph - 0.00 in   Mostly Cloudy
8:29 PM 17.6 °F 8.2 °F 12.2 °F 79% 29.96 in 10.0 mi West 6.9 mph - 0.00 in   Mostly Cloudy
8:36 PM 17.6 °F 9.3 °F 12.2 °F 79% 29.96 in 10.0 mi West 5.8 mph - 0.00 in   Mostly Cloudy
8:49 PM 17.6 °F 7.3 °F 12.2 °F 79% 29.96 in 7.0 mi West 8.1 mph - 0.00 in Snow Light Snow
8:53 PM 17.1 °F 6.6 °F 12.0 °F 81% 30.00 in 8.0 mi West 8.1 mph - 0.00 in Snow Light Snow
9:06 PM 14.0 °F 3.9 °F 10.4 °F 86% 29.96 in 10.0 mi West 6.9 mph - 0.00 in   Scattered Clouds
9:53 PM 15.1 °F 6.4 °F 10.9 °F 84% 30.00 in 10.0 mi West 5.8 mph - 0.00 in   Partly Cloudy
10:53 PM 12.0 °F 2.7 °F 9.0 °F 88% 30.00 in 10.0 mi West 5.8 mph - N/A   Scattered Clouds
11:53 PM 12.9 °F 3.8 °F 10.9 °F 92% 29.99 in 10.0 mi WSW 5.8 mph - N/A   Scattered Clouds